User: anonymous   Login
Location: Unspecified
(0.0000°N, 0.0000°E)
Time: 00:13:10
(UTC+00:00)
Language:

CRYOSAT 2 - Orbit

View from above orbital plane
View from above orbital plane
View from above satellite
View from above satellite

Ground track
Ground track

The orbit data is extracted from the following two-line orbital elements,

1 36508U 10013A   18112.82486709  .00000113  00000-0  27181-4 0  9992
2 36508  92.0256 277.1651 0008107  26.1578 334.0037 14.52178804426093
Epoch (UTC): 22 April 2018 19:47:48
Eccentricity: 0.0008107
inclination: 92.0256°
perigee height: 713 km
apogee height: 724 km
right ascension of ascending node: 277.1651°
argument of perigee: 26.1578°
revolutions per day: 14.52178804
mean anomaly at epoch: 334.0037°
orbit number at epoch: 42609

The dashed part of the orbit path shows where the satellite is in the earth's shadow,  

DLR